{"data":{"norad_id":63034,"epoch":"2026-09-21T19:08:13.494624Z","epoch_age_seconds":53292,"freshness":"FRESH","line1":"1 63034U 25034F   26264.79737841  .00012140  00000+0  40223-3 0  9997","line2":"2 63034  53.1575  65.6719 0000875  84.3015 275.8087 15.31709150 89139","mean_motion":15.3170915,"eccentricity":8.75e-5,"inclination_deg":53.1575,"raan_deg":65.6719,"arg_perigee_deg":84.3015,"mean_anomaly_deg":275.8087,"bstar":0.00040223,"rev_number":8913,"period_min":94.012626352725,"perigee_km":470.11344533708,"apogee_km":471.31199403803,"semimajor_km":6848.8497196876,"source":"CELESTRAK","updated_at":"2026-09-22T09:00:49.744190Z"}}